CW8504 Weather Reports


time (UTC)temp
F
wind
direction
speed
knots
gust
knots
rain 1hr
in
rain 24hr
in
rain mn
in
humidity
%
barometer
mb
20260504203403 68 228 2.6 10.4 0.00 0.00 0.00 13 1010.0
20260504202904 67 194 2.6 8.7 0.00 0.00 0.00 15 1009.9
20260504202404 65 220 0.0 4.3 0.00 0.00 0.00 16 1010.0
20260504201404 64 48 0.0 10.4 0.00 0.00 0.00 15 1010.1
20260504195904 65 44 0.9 4.3 0.00 0.00 0.00 14 1010.2
20260504195405 65 40 1.7 13.0 0.00 0.00 0.00 16 1010.3
20260504194904 65 42 0.9 7.8 0.00 0.00 0.00 16 1010.2
20260504194405 65 36 0.9 11.3 0.00 0.00 0.00 15 1010.3
20260504193904 66 44 2.6 10.4 0.00 0.00 0.00 15 1010.3
20260504193404 67 33 0.9 8.7 0.00 0.00 0.00 15 1010.3
20260504192904 67 26 0.9 10.4 0.00 0.00 0.00 14 1010.4
20260504192404 67 216 4.3 11.3 0.00 0.00 0.00 14 1010.5
20260504191904 67 198 3.5 11.3 0.00 0.00 0.00 13 1010.5
20260504191404 67 227 0.9 5.2 0.00 0.00 0.00 15 1010.5
20260504190904 67 210 0.0 0.0 0.00 0.00 0.00 15 1010.6
20260504190404 66 248 0.0 0.0 0.00 0.00 0.00 15 1010.6
20260504185904 66 249 0.0 0.0 0.00 0.00 0.00 15 1010.7
20260504185404 66 249 0.0 0.0 0.00 0.00 0.00 14 1010.8
20260504184904 67 247 0.0 1.7 0.00 0.00 0.00 14 1010.9
20260504184404 67 226 0.0 1.7 0.00 0.00 0.00 13 1010.9
20260504183403 69 201 0.0 2.6 0.00 0.00 0.00 13 1011.0
20260504182904 69 214 4.3 8.7 0.00 0.00 0.00 12 1011.0
20260504181904 68 155 0.9 4.3 0.00 0.00 0.00 15 1011.0
20260504180904 66 105 0.0 0.0 0.00 0.00 0.00 19 1011.3
20260504180404 65 105 0.9 2.6 0.00 0.00 0.00 16 1011.4
20260504175404 65 312 0.0 0.0 0.00 0.00 0.00 17 1011.5
20260504174905 64 312 0.0 2.6 0.00 0.00 0.00 16 1011.6
20260504174404 64 258 0.0 1.7 0.00 0.00 0.00 19 1011.6
20260504173904 64 241 0.0 2.6 0.00 0.00 0.00 21 1011.7
20260504173404 63 252 0.0 2.6 0.00 0.00 0.00 20 1011.8
20260504172904 63 355 0.0 1.7 0.00 0.00 0.00 20 1011.8
20260504172405 62 355 0.0 2.6 0.00 0.00 0.00 21 1011.9
20260504171903 62 27 0.0 2.6 0.00 0.00 0.00 22 1012.0
20260504171403 61 31 0.0 0.0 0.00 0.00 0.00 21 1012.0
20260504170907 60 31 0.0 1.7 0.00 0.00 0.00 23 1012.1
20260504170404 60 31 0.0 0.9 0.00 0.00 0.00 22 1012.1
20260504160404 54 63 0.0 0.0 0.00 0.00 0.00 31 1012.5
20260504150904 44 63 0.0 0.0 0.00 0.00 0.00 44 1013.4
20260504140904 36 98 0.0 0.0 0.00 0.00 0.00 62 1014.0
20260504140404 35 98 0.9 1.7 0.00 0.00 0.00 63 1014.1
20260504130404 30 190 0.0 0.0 0.00 0.00 0.00 69 1013.9
20260504110404 30 190 0.0 0.0 0.00 0.00 0.00 66 1013.7
20260504100404 31 190 0.0 0.0 0.00 0.00 0.00 64 1013.7
20260504081904 34 190 0.0 0.0 0.00 0.00 0.00 57 1013.7
20260504081405 34 190 0.0 0.0 0.00 0.00 0.00 57 1013.7
20260504080904 34 190 0.0 0.0 0.00 0.00 0.00 56 1013.8
20260504080404 34 190 0.0 0.0 0.00 0.00 0.00 56 1013.7
20260504070406 36 190 0.0 0.0 0.00 0.00 0.00 53 1013.8
20260504050404 41 192 0.0 0.0 0.00 0.00 0.00 48 1014.1
20260504045904 41 192 0.0 0.0 0.00 0.00 0.00 47 1014.2
20260504044904 42 192 0.0 0.0 0.00 0.00 0.00 47 1014.1
20260504044404 42 192 0.0 0.0 0.00 0.00 0.00 47 1014.0
20260504043905 42 192 0.0 0.0 0.00 0.00 0.00 48 1014.1
20260504042904 43 193 0.0 0.0 0.00 0.00 0.00 44 1014.1
20260504042404 44 193 0.0 0.0 0.00 0.00 0.00 44 1014.0
20260504041904 45 193 0.0 0.0 0.00 0.00 0.00 43 1014.0
20260504041404 45 193 0.0 0.0 0.00 0.00 0.00 43 1014.0
20260504040904 46 193 0.0 0.0 0.00 0.00 0.00 40 1014.0
20260504040407 46 193 0.0 0.0 0.00 0.00 0.00 38 1013.9
20260504035904 47 193 0.0 0.0 0.00 0.00 0.00 39 1013.9
20260504035404 47 193 0.0 0.0 0.00 0.00 0.00 39 1013.9
20260504034905 48 193 0.0 0.0 0.00 0.00 0.00 37 1013.8
20260504033904 49 193 0.0 0.0 0.00 0.00 0.00 35 1013.7
20260504033404 50 193 0.0 0.0 0.00 0.00 0.00 37 1013.7
20260504032904 51 193 0.0 0.0 0.00 0.00 0.00 36 1013.6
20260504032404 51 193 0.0 0.0 0.00 0.00 0.00 33 1013.5
20260504031904 52 193 0.0 0.0 0.00 0.00 0.00 32 1013.5
20260504031405 52 193 0.0 0.0 0.00 0.00 0.00 29 1013.4
20260504030904 53 193 0.0 0.0 0.00 0.00 0.00 24 1013.3
20260504030404 53 193 0.0 0.0 0.00 0.00 0.00 21 1013.2
20260504025904 54 201 0.0 0.0 0.00 0.00 0.00 28 1013.2
20260504025404 55 201 0.0 0.0 0.00 0.00 0.00 26 1013.1
20260504024904 55 201 0.0 0.0 0.00 0.00 0.00 20 1013.1
20260504024404 56 202 0.0 0.0 0.00 0.00 0.00 18 1013.0
20260504023905 57 203 0.0 0.0 0.00 0.00 0.00 17 1013.1
20260504023404 58 236 0.0 0.0 0.00 0.00 0.00 18 1013.0
20260504022404 60 236 0.0 0.0 0.00 0.00 0.00 15 1012.9
20260504021904 61 236 0.0 0.0 0.00 0.00 0.00 14 1012.9
20260504021403 61 236 0.0 0.0 0.00 0.00 0.00 12 1012.8
20260504020904 61 236 0.0 0.0 0.00 0.00 0.00 12 1012.8
20260504020404 62 236 0.0 0.0 0.00 0.00 0.00 12 1012.8
20260504015904 63 236 0.0 0.0 0.00 0.00 0.00 10 1012.7
20260504014904 64 234 0.0 0.0 0.00 0.00 0.00 8 1012.8
20260504014404 65 229 0.0 0.0 0.00 0.00 0.00 6 1012.9
20260504013904 65 229 0.0 0.0 0.00 0.00 0.00 6 1012.8
20260504012904 67 237 0.0 1.7 0.00 0.00 0.00 6 1012.9
20260504012404 67 228 0.0 1.7 0.00 0.00 0.00 5 1012.8
20260504011404 68 232 1.7 8.7 0.00 0.00 0.00 4 1012.9
20260504010904 68 242 0.9 2.6 0.00 0.00 0.00 4 1013.0
20260504010404 69 223 0.9 2.6 0.00 0.00 0.00 5 1013.0
20260504005904 69 216 0.0 0.9 0.00 0.00 0.00 5 1013.0
20260504005405 69 217 0.0 2.6 0.00 0.00 0.00 4 1013.0
20260504004904 69 248 2.6 10.4 0.00 0.00 0.00 3 1013.0
20260504004404 69 215 0.0 5.2 0.00 0.00 0.00 4 1013.0
20260504003404 70 234 0.9 8.7 0.00 0.00 0.00 5 1013.0
20260504002904 70 249 0.9 2.6 0.00 0.00 0.00 4 1013.0
20260504002404 70 221 1.7 6.1 0.00 0.00 0.00 5 1013.0
20260504001904 70 209 1.7 7.0 0.00 0.00 0.00 7 1013.0
20260504000904 70 236 0.9 6.1 0.00 0.00 0.00 6 1013.1
20260504000404 70 244 1.7 6.1 0.00 0.00 0.00 6 1013.2
20260503235404 70 230 0.9 7.8 0.00 0.00 0.00 6 1013.2
20260503234904 70 229 5.2 10.4 0.00 0.00 0.00 6 1013.3
20260503233404 70 230 6.1 11.3 0.00 0.00 0.00 6 1013.2
20260503232404 70 257 0.9 10.4 0.00 0.00 0.00 7 1013.3
20260503231904 70 252 3.5 10.4 0.00 0.00 0.00 6 1013.3
20260503231404 70 231 1.7 12.2 0.00 0.00 0.00 6 1013.4
20260503230904 71 244 4.3 10.4 0.00 0.00 0.00 7 1013.5
20260503230404 71 236 4.3 10.4 0.00 0.00 0.00 7 1013.4
20260503225904 71 230 6.1 11.3 0.00 0.00 0.00 7 1013.5
20260503225404 71 248 0.9 8.7 0.00 0.00 0.00 6 1013.4
20260503224904 71 241 4.3 12.2 0.00 0.00 0.00 6 1013.3
20260503224404 71 229 4.3 11.3 0.00 0.00 0.00 6 1013.4
20260503223404 69 245 2.6 10.4 0.00 0.00 0.00 8 1013.5
20260503222904 68 224 1.7 10.4 0.00 0.00 0.00 9 1013.5
20260503222404 67 223 0.9 2.6 0.00 0.00 0.00 10 1013.7
20260503221904 66 218 4.3 7.8 0.00 0.00 0.00 9 1013.8
20260503221404 66 238 0.0 0.9 0.00 0.00 0.00 8 1013.8
20260503220404 67 129 0.0 0.9 0.00 0.00 0.00 8 1014.0
20260503215404 67 67 0.0 0.0 0.00 0.00 0.00 8 1014.1
20260503214904 66 67 0.0 0.0 0.00 0.00 0.00 7 1014.2
20260503214404 67 67 0.0 0.9 0.00 0.00 0.00 6 1014.2
20260503213904 67 69 0.0 1.7 0.00 0.00 0.00 7 1014.2
20260503212904 68 236 2.6 8.7 0.00 0.00 0.00 7 1014.3
20260503212404 69 254 0.0 7.0 0.00 0.00 0.00 6 1014.3
20260503211404 70 275 0.0 2.6 0.00 0.00 0.00 6 1014.4
20260503210905 70 141 0.0 1.7 0.00 0.00 0.00 4 1014.4
20260503210405 71 231 0.0 0.9 0.00 0.00 0.00 4 1014.4
20260503205904 71 235 4.3 10.4 0.00 0.00 0.00 6 1014.7
20260503205404 72 205 1.7 7.8 0.00 0.00 0.00 5 1014.5
20260503204904 71 217 1.7 5.2 0.00 0.00 0.00 6 1014.6
20260503203904 70 218 2.6 5.2 0.00 0.00 0.00 4 1014.8